Location: Vinland
(47.7731°N, 122.6974°W)
Time: 21:54:15
(UTC+00:00)

Transit 4A - All Passes

Search period start: 21 March 2023 00:00
Search period end: 31 March 2023 00:00
Orbit: 868 x 976 km, 66.8° (Epoch: 21 March)

Date Brightness Start Highest point End Pass type
(mag) Time Alt. Az. Time Alt. Az. Time Alt. Az.
21 Mar - 00:31:13 10° NW 00:37:17 67° WSW 00:43:29 10° SSE daylight
21 Mar - 02:20:17 10° W 02:22:34 12° W 02:24:51 10° WSW daylight
21 Mar - 13:58:17 10° SE 14:01:34 16° ESE 14:04:53 10° ENE daylight
21 Mar - 15:41:10 10° SSW 15:46:59 86° ESE 15:52:57 10° NE daylight
21 Mar - 17:29:17 10° W 17:34:05 25° NW 17:39:00 10° NNE daylight
21 Mar - 19:20:13 10° NNW 19:22:44 13° N 19:25:16 10° NNE daylight
21 Mar - 21:08:17 10° NNW 21:11:51 16° NNE 21:15:27 10° ENE daylight
21 Mar - 22:54:10 10° NNW 22:59:55 41° NE 23:05:47 10° ESE daylight
22 Mar - 00:40:33 10° NW 00:46:23 48° WSW 00:52:21 10° S daylight
22 Mar - 14:05:59 10° SSE 14:10:26 23° ESE 14:14:57 10° ENE daylight
22 Mar - 15:50:25 10° SW 15:56:13 69° NW 16:02:09 10° NNE daylight
22 Mar - 17:39:20 10° WNW 17:43:40 21° NNW 17:48:06 10° NNE daylight
22 Mar - 19:30:15 10° NNW 19:32:33 12° N 19:34:52 10° NNE daylight
22 Mar - 21:17:25 10° NNW 21:21:32 18° NNE 21:25:44 10° ENE daylight
22 Mar - 23:03:17 10° NNW 23:09:16 55° NE 23:15:24 10° SE daylight
23 Mar - 00:50:00 10° NW 00:55:25 34° WSW 01:00:57 10° S daylight
23 Mar - 14:14:15 10° S 14:19:23 33° ESE 14:24:36 10° NE daylight
23 Mar - 15:59:51 10° SW 16:05:30 51° NW 16:11:19 10° NNE daylight
23 Mar - 17:49:30 10° WNW 17:53:20 17° NNW 17:57:13 10° NNE daylight
23 Mar - 19:40:00 10° NNW 19:42:22 12° N 19:44:46 10° NNE daylight
23 Mar - 21:26:31 10° NNW 21:31:11 22° NNE 21:35:55 10° E daylight
23 Mar - 23:12:26 10° NNW 23:18:34 74° NE 23:24:50 10° SE daylight
24 Mar - 00:59:38 10° WNW 01:04:22 24° WSW 01:09:12 10° SSW daylight
24 Mar - 14:22:50 10° S 14:28:24 48° ESE 14:34:03 10° NE daylight
24 Mar - 16:09:28 10° WSW 16:14:53 38° NW 16:20:26 10° NNE daylight
24 Mar - 17:59:44 10° NW 18:03:02 15° NNW 18:06:23 10° NNE daylight
24 Mar - 19:49:27 10° NNW 19:52:10 13° N 19:54:55 10° NE daylight
24 Mar - 21:35:36 10° NNW 21:40:44 27° NE 21:45:58 10° E daylight
24 Mar - 23:21:39 10° NW 23:27:47 83° WSW 23:34:04 10° SSE daylight
25 Mar - 01:09:39 10° WNW 01:13:16 16° WSW 01:16:56 10° SW daylight
25 Mar - 12:50:24 10° ESE 12:52:17 12° E 12:54:10 10° E visible
25 Mar - 14:31:43 10° SSW 14:37:29 69° ESE 14:43:23 10° NE daylight
25 Mar - 16:19:15 10° W 16:24:20 30° NW 16:29:33 10° NNE daylight
25 Mar - 18:10:00 10° NW 18:12:48 13° NNW 18:15:39 10° NNE daylight
25 Mar - 19:58:44 10° NNW 20:01:57 14° NNE 20:05:12 10° NE daylight
25 Mar - 21:44:41 10° NNW 21:50:14 35° NE 21:55:53 10° ESE daylight
25 Mar - 23:30:55 10° NW 23:36:55 60° WSW 23:43:05 10° SSE daylight
26 Mar - 01:21:10 10° W 01:22:05 10° W 01:23:02 10° WSW daylight
26 Mar - 12:57:21 10° SE 13:01:06 18° ESE 13:04:54 10° ENE visible
26 Mar - 14:40:49 10° SW 14:46:38 85° NW 14:52:37 10° NE daylight
26 Mar - 16:29:12 10° W 16:33:52 24° NNW 16:38:38 10° NNE daylight
26 Mar - 18:20:09 10° NNW 18:22:36 12° N 18:25:04 10° NNE daylight
26 Mar - 20:07:55 10° NNW 20:11:41 17° NNE 20:15:30 10° ENE daylight
26 Mar - 21:53:47 10° NNW 21:59:39 45° NE 22:05:37 10° ESE daylight
26 Mar - 23:40:16 10° NW 23:46:01 42° WSW 23:51:52 10° S daylight
27 Mar - 13:05:16 10° SSE 13:10:00 26° ESE 13:14:47 10° NE visible
27 Mar - 14:50:07 10° SW 14:55:53 62° NW 15:01:49 10° NNE daylight
27 Mar - 16:39:17 10° WNW 16:43:29 20° NNW 16:47:45 10° NNE daylight
27 Mar - 18:30:05 10° NNW 18:32:25 12° N 18:34:46 10° NNE daylight
27 Mar - 20:17:01 10° NNW 20:21:21 20° NNE 20:25:45 10° ENE daylight
27 Mar - 22:02:55 10° NNW 22:08:59 60° NE 22:15:11 10° SE daylight
27 Mar - 23:49:46 10° NW 23:55:01 30° WSW 00:00:21 10° SSW daylight
28 Mar - 13:13:40 10° S 13:18:57 38° ESE 13:24:21 10° NE visible
28 Mar - 14:59:37 10° WSW 15:05:12 46° NW 15:10:57 10° NNE daylight
28 Mar - 16:49:29 10° WNW 16:53:09 17° NNW 16:56:53 10° NNE daylight
28 Mar - 18:39:44 10° NNW 18:42:14 12° N 18:44:45 10° NNE daylight
28 Mar - 20:26:07 10° NNW 20:30:58 24° NNE 20:35:54 10° E daylight
28 Mar - 22:12:05 10° NNW 22:18:15 81° NE 22:24:33 10° SE daylight
28 Mar - 23:59:30 10° WNW 00:03:57 21° WSW 00:08:28 10° SSW daylight
29 Mar - 13:22:21 10° SSW 13:28:00 55° ESE 13:33:46 10° NE visible
29 Mar - 15:09:17 10° WSW 15:14:37 35° NW 15:20:04 10° NNE daylight
29 Mar - 16:59:43 10° NW 17:02:52 14° NNW 17:06:05 10° NNE daylight
29 Mar - 18:49:08 10° NNW 18:52:01 13° NNE 18:54:57 10° NE daylight
29 Mar - 20:35:12 10° NNW 20:40:30 30° NE 20:45:54 10° E daylight
29 Mar - 22:21:17 10° NW 22:27:26 75° WSW 22:33:43 10° SSE daylight
30 Mar - 00:09:45 10° WNW 00:12:49 14° WSW 00:15:55 10° SW daylight
30 Mar - 11:49:04 10° SE 11:51:48 14° ESE 11:54:33 10° ENE visible
30 Mar - 13:31:18 10° SSW 13:37:06 78° ESE 13:43:04 10° NE daylight
30 Mar - 15:19:07 10° W 15:24:05 28° NW 15:29:10 10° NNE daylight
30 Mar - 17:09:57 10° NW 17:12:39 13° N 17:15:23 10° NNE daylight
30 Mar - 18:58:22 10° NNW 19:01:48 15° NNE 19:05:15 10° NE daylight
30 Mar - 20:44:17 10° NNW 20:49:58 38° NE 20:55:45 10° ESE daylight
30 Mar - 22:30:36 10° NW 22:36:34 54° WSW 22:42:39 10° SSE daylight
